Date String (YYYY-MM-DD hh:mm:ss) UTC,Instrument flags,Ambient pressure (hPa),Sample flow (lpm),Bypass flow (lpm),Sample temperature (°C),Ambient temperature (°C),ASC tube jacket temperature (°C),LED temperature (°C),Box temperature (°C),Sample RH (%),Span deviation,Mass concentration (μg/m³),Mass concentration (μg/m³),Mass concentration (μg/m³)
DateTimeUTC,F1_M11,P_M11,Q1_M11,Q2_M11,T1_M11,T2_M11,T3_M11,T4_M11,T5_M11,U1_M11,ZSPAN_M11,X2_M11,X0_M11,X1_M11
2022-12-07 04:00:00,,0822.4,5.00,0.00,21.8,20.3,00.0,30.8,23.4,10.8,0000.0,0001.16,0001.78,0000.92
2022-12-07 04:01:00,,0822.4,4.99,0.00,21.8,20.2,00.0,30.8,23.4,10.8,0000.0,0001.20,0001.85,0000.93
2022-12-07 04:02:00,,0822.4,5.00,0.00,21.8,20.1,00.0,30.8,23.3,10.7,0000.0,0001.17,0001.81,0000.93
2022-12-07 04:03:00,,0822.4,5.00,0.00,21.7,20.0,00.0,30.8,23.3,10.8,0000.0,0001.17,0001.88,0000.94
2022-12-07 04:04:00,,0822.4,5.01,0.00,21.7,20.5,00.0,30.7,23.4,10.8,0000.0,0001.17,0001.83,0000.94
2022-12-07 04:05:00,,0822.4,5.01,0.00,21.8,21.5,00.0,30.7,23.7,10.8,0000.0,0001.17,0001.82,0000.96
2022-12-07 04:06:00,,0822.4,4.99,0.00,21.9,22.0,00.0,30.7,23.9,10.8,0000.0,0001.19,0001.86,0000.97
2022-12-07 04:07:00,,0822.4,4.99,0.00,22.0,21.6,00.0,30.8,23.9,10.7,0000.0,0001.20,0001.88,0000.98
2022-12-07 04:08:00,,0822.4,5.00,0.00,21.9,21.3,00.0,30.9,23.8,10.7,0000.0,0001.20,0001.83,0000.99
2022-12-07 04:09:00,,0822.4,5.00,0.00,21.9,21.0,00.0,30.9,23.7,10.7,0000.0,0001.21,0001.82,0000.99
2022-12-07 04:10:00,,0822.4,4.99,0.00,21.9,20.7,00.0,30.9,23.6,10.7,0000.0,0001.18,0001.75,0000.98
2022-12-07 04:11:00,,0822.4,5.00,0.00,21.9,20.5,00.0,30.8,23.5,10.7,0000.0,0001.13,0001.68,0000.96
2022-12-07 04:12:00,,0822.4,5.01,0.00,21.8,20.3,00.0,30.8,23.4,10.7,0000.0,0001.09,0001.62,0000.93
2022-12-07 04:13:00,,0822.4,5.00,0.00,21.8,20.2,00.0,30.8,23.4,10.8,0000.0,0001.07,0001.58,0000.91
2022-12-07 04:14:00,,0822.4,4.99,0.00,21.8,20.1,00.0,30.8,23.3,10.8,0000.0,0001.05,0001.43,0000.91
2022-12-07 04:15:00,,0822.4,4.99,0.00,21.7,20.0,00.0,30.8,23.3,10.8,0000.0,0001.05,0001.39,0000.91
2022-12-07 04:16:00,,0822.4,5.01,0.00,21.7,20.2,00.0,30.7,23.3,10.8,0000.0,0001.05,0001.40,0000.89
2022-12-07 04:17:00,,0822.3,5.01,0.00,21.8,21.4,00.0,30.7,23.7,10.7,0000.0,0001.04,0001.44,0000.88
2022-12-07 04:18:00,,0822.4,4.99,0.00,21.9,22.2,00.0,30.7,24.0,10.6,0000.0,0001.01,0002.25,0000.86
2022-12-07 04:19:00,,0822.3,4.99,0.00,22.0,22.0,00.0,30.8,24.0,10.6,0000.0,0000.98,0002.61,0000.83
2022-12-07 04:20:00,,0822.2,5.01,0.00,22.0,21.6,00.0,30.8,23.9,10.4,0000.0,0000.94,0002.56,0000.80
2022-12-07 04:21:00,,0822.3,5.00,0.00,22.0,21.2,00.0,30.9,23.8,10.5,0000.0,0000.94,0002.57,0000.80
2022-12-07 04:22:00,,0822.4,4.99,0.00,22.0,20.8,00.0,30.9,23.7,10.5,0000.0,0000.95,0002.59,0000.80
2022-12-07 04:23:00,,0822.4,5.00,0.00,21.9,20.6,00.0,30.9,23.6,10.7,0000.0,0000.95,0002.56,0000.80
2022-12-07 04:24:00,,0822.4,5.01,0.00,21.9,20.4,00.0,30.9,23.5,10.7,0000.0,0000.95,0002.56,0000.81
2022-12-07 04:25:00,,0822.4,5.01,0.00,21.9,20.3,00.0,30.8,23.4,10.8,0000.0,0000.96,0002.62,0000.80
2022-12-07 04:26:00,,0822.3,5.00,0.00,21.8,20.2,00.0,30.8,23.4,10.8,0000.0,0000.93,0002.58,0000.77
2022-12-07 04:27:00,,0822.3,4.99,0.00,21.8,20.1,00.0,30.8,23.4,10.6,0000.0,0000.92,0002.56,0000.76
2022-12-07 04:28:00,,0822.3,5.00,0.00,21.8,20.5,00.0,30.8,23.5,10.7,0000.0,0000.90,0002.50,0000.75
2022-12-07 04:29:00,,0822.3,5.01,0.00,21.9,21.6,00.0,30.7,23.8,10.6,0000.0,0000.91,0001.76,0000.76
2022-12-07 04:30:00,,0822.4,4.98,0.00,22.0,22.1,00.0,30.8,24.0,10.5,0000.0,0000.94,0001.44,0000.77
2022-12-07 04:31:00,,0822.4,5.00,0.00,22.0,21.7,00.0,30.9,24.0,10.4,0000.0,0000.97,0001.56,0000.76
2022-12-07 04:32:00,,0822.4,5.00,0.00,22.0,21.3,00.0,30.9,23.9,10.5,0000.0,0000.96,0001.54,0000.77
2022-12-07 04:33:00,,0822.5,5.00,0.00,22.0,21.0,00.0,30.9,23.8,10.5,0000.0,0000.94,0001.50,0000.77
2022-12-07 04:34:00,,0822.4,5.00,0.00,22.0,20.7,00.0,30.9,23.7,10.5,0000.0,0000.94,0001.48,0000.77
2022-12-07 04:35:00,,0822.4,5.00,0.00,21.9,20.5,00.0,30.9,23.6,10.4,0000.0,0000.95,0001.56,0000.76
2022-12-07 04:36:00,,0822.4,5.00,0.00,21.9,20.3,00.0,30.9,23.5,10.5,0000.0,0000.93,0001.55,0000.75
2022-12-07 04:37:00,,0822.4,5.00,0.00,21.8,20.2,00.0,30.9,23.4,10.5,0000.0,0000.95,0001.61,0000.75
2022-12-07 04:38:00,,0822.5,5.00,0.00,21.8,20.1,00.0,30.9,23.4,10.6,0000.0,0000.94,0001.58,0000.75
2022-12-07 04:39:00,,0822.4,4.99,0.00,21.8,20.0,00.0,30.8,23.3,10.6,0000.0,0000.94,0001.62,0000.74
2022-12-07 04:40:00,,0822.4,4.99,0.00,21.7,20.0,00.0,30.8,23.3,10.7,0000.0,0000.92,0001.58,0000.72
2022-12-07 04:41:00,,0822.5,5.01,0.00,21.8,20.7,00.0,30.8,23.5,10.6,0000.0,0000.88,0001.39,0000.72
2022-12-07 04:42:00,,0822.5,5.01,0.00,21.9,21.8,00.0,30.7,23.8,10.6,0000.0,0000.86,0001.31,0000.72
2022-12-07 04:43:00,,0822.5,4.99,0.00,22.0,22.0,00.0,30.8,24.0,10.5,0000.0,0000.87,0001.37,0000.71
2022-12-07 04:44:00,,0822.4,4.99,0.00,22.0,21.6,00.0,30.9,23.9,10.4,0000.0,0000.88,0001.43,0000.70
2022-12-07 04:45:00,,0822.5,5.01,0.00,22.0,21.2,00.0,30.9,23.8,10.4,0000.0,0000.90,0001.52,0000.69
2022-12-07 04:46:00,,0822.6,5.00,0.00,22.0,20.9,00.0,30.9,23.7,10.4,0000.0,0000.89,0001.45,0000.69
2022-12-07 04:47:00,,0822.6,5.01,0.00,21.9,20.7,00.0,30.9,23.6,10.4,0000.0,0000.89,0001.39,0000.70
2022-12-07 04:48:00,,0822.6,5.01,0.00,21.9,20.5,00.0,30.9,23.6,10.4,0000.0,0000.87,0001.34,0000.70
2022-12-07 04:49:00,,0822.6,5.00,0.00,21.9,20.4,00.0,30.9,23.5,10.3,0000.0,0000.86,0001.34,0000.69
2022-12-07 04:50:00,,0822.6,5.00,0.00,21.8,20.2,00.0,30.9,23.4,10.3,0000.0,0000.85,0001.29,0000.69
2022-12-07 04:51:00,,0822.5,5.00,0.00,21.8,20.1,00.0,30.9,23.4,10.3,0000.0,0000.86,0001.32,0000.69
2022-12-07 04:52:00,,0822.6,5.00,0.00,21.8,20.0,00.0,30.8,23.4,10.4,0000.0,0000.86,0001.38,0000.68
2022-12-07 04:53:00,,0822.6,5.00,0.00,21.7,20.1,00.0,30.8,23.4,10.4,0000.0,0000.86,0001.65,0000.68
2022-12-07 04:54:00,,0822.6,5.01,0.00,21.8,20.9,00.0,30.7,23.6,10.3,0000.0,0000.85,0001.64,0000.67
2022-12-07 04:55:00,,0822.6,4.99,0.00,21.9,21.9,00.0,30.7,23.9,10.2,0000.0,0000.83,0001.56,0000.67
2022-12-07 04:56:00,,0822.5,4.99,0.00,22.0,21.9,00.0,30.8,24.0,10.1,0000.0,0000.82,0001.52,0000.68
2022-12-07 04:57:00,,0822.6,5.00,0.00,22.0,21.5,00.0,30.8,23.9,10.0,0000.0,0000.83,0001.56,0000.68
2022-12-07 04:58:00,,0822.6,5.00,0.00,22.0,21.2,00.0,30.9,23.8,10.0,0000.0,0000.83,0001.58,0000.67
2022-12-07 04:59:00,,0822.6,5.00,0.00,22.0,20.9,00.0,30.9,23.7,09.9,0000.0,0000.86,0001.69,0000.65
